www.pogodaiklimat.ru

Погода и климат >> Архив погоды >> Пакистан >> Peshawar


ПОГОДА в Peshawar

  • Прогноз погоды в Peshawar
  • Монитор погоды в Peshawar
  • Климат города

АРХИВ ПОГОДЫ в Peshawar

Время (UTC), дата Ветер
(напр.,м/с)
 
Видим.   Явления Облачность Т
(С)
Тd
(С)
f
(%)
Тe
(С)
Тes
(С)
Комфортность P
(гПа)
Po
(гПа)
Тmin
(С)
Tmax
(С)
R
(мм)
R24
(мм)
S
(см)
03 14.06 штиль 0 10 км ясно +30.0 +22.8 65 +40 +49 очень
душно
991.8 956.0 +24.1
06 14.06 штиль 0 10 км ясно +39.0 +21.8 37 +46 +73 опасность
перегрева
991.4 956.9
09 14.06 штиль 0 10 км ясно +43.0 +23.5 33 +52 +77 опасность
перегрева
989.7 955.5
12 14.06 СЗ 1 10 км 3/0
[Ac trans]
+44.0 +24.8 34 +55 +60 опасность
перегрева
986.2 952.0 +45.8
15 14.06 СЗ 1 4000 м 3/0
[Ac trans]
+39.0 +25.2 46 +52 +52 опасность
перегрева
987.0 952.5
18 14.06 штиль 0 4000 м ясно +36.0 +24.9 53 +49 +49 опасность
перегрева
988.5 953.3
21 14.06 штиль 0 4000 м ясно +31.0 +20.6 54 +38 +38 очень
душно
989.0 953.5
00 15.06 штиль 0 4000 м 4/0
[Ac trans]
+29.0 +23.2 71 +39 +39 очень
душно
991.8 956.0
03 15.06 штиль 0 10 км 8/4 1200 м
[Sc Ac trans]
+32.0 +23.4 60 +43 +46 опасность
перегрева
1002.4 956.9 +28.0
06 15.06 СЗ 1 4000 м 8/4
[Sc Ac trans]
+36.0 +24.9 53 +49 +58 опасность
перегрева
993.1 957.9
09 15.06 СЗ 1 4000 м 8/4
[Sc Ac trans]
+39.0 +27.6 53 +58 +66 опасность
перегрева
991.2 956.7
12 15.06 Ю 1 4000 м 8/4 1200 м
[Sc As op]
+37.5 +21.6 40 +45 +47 опасность
перегрева
990.8 956.0 +40.0
15 15.06 СВ 1 4000 м 8/4 300 м
[Sc As op]
+31.0 +20.6 54 +38 +38 очень
душно
995.3 959.8
18 15.06 СЗ 1 4000 м 6/4 300 м
[Sc As op]
+29.0 +20.8 61 +36 +36 очень
душно
997.2 961.4
21 15.06 штиль 0 4000 м 6/3 1200 м
[Sc As op]
+27.5 +19.9 63 +33 +33 очень
душно
997.4 961.2
00 16.06 штиль 0 4000 м 5/4 300 м
[Sc As op]
+27.0 +20.2 66 +33 +33 очень
душно
997.3 961.1
03 16.06 штиль 0 4000 м 6/3 1200 м
[Sc Ac trans]
+30.0 +22.0 62 +39 +43 очень
душно
998.1 962.3 +24.4
06 16.06 СВ 2 4000 м 6/3 1200 м
[Sc Ac trans]
+34.0 +22.5 51 +43 +53 опасность
перегрева
997.4 962.2
09 16.06 ЮВ 2 4000 м 6/3 1200 м
[Sc Ac trans]
+37.5 +23.4 45 +48 +57 опасность
перегрева
995.2 960.4
12 16.06 ЮВ 1 4000 м 6/3 1200 м
[Sc Ac trans]
+37.0 +21.0 40 +44 +47 опасность
перегрева
993.3 958.5 +39.0
15 16.06 штиль 0 4000 м ясно +34.0 +22.5 51 +43 +43 опасность
перегрева
994.0 958.8
18 16.06 СЗ 2 4000 м 4/0
[Ac und]
+31.5 +24.4 66 +44 +44 опасность
перегрева
995.9 960.4
21 16.06 СЗ 2 4000 м 6/4 300 м
[Sc Ac trans]
+30.0 +21.1 59 +38 +38 очень
душно
996.3 961.1
00 17.06 штиль 0 4000 м в посл. час гроза 9/5 300 м
[Sc As op]
+26.0 +19.9 69 +32 +32 очень
душно
998.1 961.9
03 17.06 штиль 0 4000 м 9/5 300 м
[Sc As op]
+28.0 +22.1 70 +36 +38 очень
душно
999.2 963.4 +25.1
06 17.06 С 1 4000 м 9/4 1200 м
[Sc As op]
+32.0 +22.6 58 +42 +46 опасность
перегрева
999.5 964.0
09 17.06 0 н/о +22.5 997.7 962.5
12 17.06 С 1 50 км 6/4 300 м
[Sc As op]
+35.5 +22.6 47 +45 +47 опасность
перегрева
996.6 961.4 +36.1
15 17.06 штиль 0 4000 м 6/4 300 м
[Sc As op]
+32.0 +23.4 60 +43 +43 опасность
перегрева
998.8 963.3
18 17.06 штиль 0 4000 м 5/3 300 м
[Sc As op]
+30.0 +24.3 72 +42 +42 опасность
перегрева
1000.6 964.8
21 17.06 штиль 0 4000 м 8/4 1200 м
[Sc As op]
+28.0 +22.1 70 +36 +36 очень
душно
1001.4 965.6
00 18.06 штиль 0 4000 м гроза с градом 10/5 300 м
[Sc As op]
+22.0 +20.5 91 +28 +28 душно 1000.9 963.9 18
03 18.06 штиль 0 10 км 5/3 1200 м
[Sc Ac trans]
+25.0 +20.5 76 +31 +37 очень
душно
1001.2 965.0 +20.0
06 18.06 штиль 0 10 км 3/0 1000 м
[Ac trans]
+32.0 +20.0 49 +38 +60 опасность
солнечного
удара
999.8 964.3
09 18.06 штиль 0 10 км ясно +35.0 +22.0 47 +44 +68 опасность
перегрева
998.4 963.2
12 18.06 СВ 1 10 км ясно +36.0 +24.0 50 +47 +53 опасность
перегрева
996.4 961.2 +36.5
15 18.06 ЮВ 1 4000 м 3/3 1200 м
[Sc]
+33.0 +22.1 53 +42 +42 опасность
перегрева
997.7 962.2
18 18.06 ЮВ 1 4000 м ясно +29.5 +21.4 62 +37 +37 очень
душно
999.7 963.9
21 18.06 ЮВ 1 4000 м ясно +28.0 +20.5 64 +35 +35 очень
душно
999.1 963.6
00 19.06 СВ 1 4000 м ясно +25.0 +20.5 76 +31 +31 очень
душно
1000.4 964.2
03 19.06 СЗ 1 10 км ясно +28.0 +22.1 70 +36 +44 очень
душно
1000.8 965.0 +24.0
06 19.06 штиль 0 10 км ясно +34.0 +24.1 56 +46 +72 опасность
перегрева
999.7 964.5
09 19.06 СЗ 1 10 км ясно +36.5 +25.5 53 +51 +73 опасность
перегрева
997.3 962.5
12 19.06 СВ 1 4000 м 3/0
[Ac trans]
+37.5 +25.8 51 +52 +57 опасность
перегрева
995.3 960.5 +38.1
15 19.06 СВ 1 4000 м 3/0
[Ac trans]
+34.0 +22.5 51 +43 +43 опасность
перегрева
996.2 961.0
18 19.06 штиль 0 4000 м ясно +30.0 +22.8 65 +40 +40 очень
душно
998.2 962.4
21 19.06 штиль 0 4000 м ясно +28.0 +22.1 70 +36 +36 очень
душно
997.7 961.9
00 20.06 штиль 0 4000 м ясно +26.0 +20.7 73 +33 +33 очень
душно
1000.4 964.2
03 20.06 штиль 0 10 км ясно +30.0 +22.8 65 +40 +49 очень
душно
1001.8 966.0 +24.5
06 20.06 СВ 1 10 км ясно +35.0 +22.9 50 +45 +68 опасность
перегрева
1001.5 966.3
09 20.06 штиль 0 10 км ясно +38.0 +22.3 41 +47 +71 опасность
перегрева
998.9 964.1
12 20.06 ЮВ 3 10 км 3/0
[Ac trans]
+39.0 +23.5 41 +49 +52 опасность
перегрева
995.8 961.3 +39.7
15 20.06 ЮЗ 3 4000 м ясно +35.0 +22.0 47 +44 +44 опасность
перегрева
997.9 962.7
18 20.06 ЮЗ 1 4000 м ясно +30.0 +19.4 53 +36 +36 очень
душно
999.7 963.9

 

Местоположение метеостанции Peshawar (Пакистан): широта 34.02 долгота 71.58 высота над уровнем моря 360 м.

В архиве по умолчанию представлена погода в Peshawar за последнюю неделю. Архивные данные за месяц целиком и за предыдущие месяцы, начиная с января 2011 года, Вы можете получить, выбрав интересующий диапазон дат из раскрывающегося списка и нажав кнопку "Ввод!".


*Определитесь, кто Вы:
робот инопланетянин человек

Внимание! Время в таблицах - всемирное. Для получения местного времени необходимо прибавить поправку, которая в Peshawar равна 5 ч.

Смотрите также архив погоды в соседних городах и на ближайших метеорологических станциях:

Погода в Risalpur (Пакистан) (37 км)
Погода в Kohat (Пакистан) (52 км)
Погода в Saidu Sharif (Пакистан) (106 км)
Погода в Jalalabad (Афганистан) (112 км)
Погода в Dir (Пакистан) (134 км)
Погода в Parachinar (Пакистан) (139 км)
Погода в Islamabad (Пакистан) (147 км)
Погода в Kakul (Пакистан) (155 км)
Погода в Mianwali (Пакистан) (164 км)
Погода в Murree (Пакистан) (166 км)

Пояснения к столбцам:

Ветер - указаны скорость ветра в м/с - средняя за 10 мин, порывы в срок и между сроками (в фигурных скобках) и направление, откуда дует ветер: С - северный, СВ - северо-восточный, В - восточный, ЮВ - юго-восточный, Ю - южный, ЮЗ - юго-западный, З - западный, СЗ - северо-западный.
Видимость - горизонтальная дальность видимости в метрах или километрах. При видимости от 1 до 10 км при отсутствии осадков обычно наблюдается дымка, при ухудшении видимости до 1 км и менее - туман. В сухую погоду видимость может ухудшаться дымом, пылью или мглою.
Явления - указаны атмосферные явления, наблюдавшиеся в срок или в последний час перед сроком; фигурными скобками обозначены явления, наблюдавшиеся между сроками (за 1-3 часа до срока); квадратными скобками обозначены град или гололедные отложения с указанием их диаметра в мм.
Облачность - указаны через наклонную черту общая и нижняя облачность в баллах и высота нижней границы облаков в метрах; квадратными скобками обозначены формы облаков: Ci - перистые, Cs - перисто-слоистые, Cc - перисто-кучевые, Ac - высококучевые, As - высокослоистые, Sc - слоисто-кучевые, Ns - слоисто-дождевые, Cu - кучевые, Cb - кучево-дождевые. Подробнее классификацию облаков см. в Атласе облаков (PDF).
T - Температура воздуха - температура, измеренная на высоте 2 м над землей.
Td - Температура точки росы - температура, при понижении до которой содержащийся в воздухе водяной пар достигнет насыщения.
f - Относительная влажность воздуха - влажноcть воздуха, измеренная на высоте 2 м над землей.
Te - Эффективная температура - температура, которую ощущает одетый по сезону человек в тени. Характеристика душности погоды. При расчете учитывается влияние влажности воздуха и скорости ветра на теплоощущения человека.
Tes - Эффективная температура на солнце - температура, которую ощущает человек, с поправкой на солнечный нагрев. Характеристика знойности погоды. Зависит от высоты солнца над горизонтом, облачности и скорости ветра. Ночью, в пасмурную погоду, а также при ветре 12 м/с и более поправка равна нулю.
P - Атмосферное давление - приведенное к уровню моря атмосферное давление.
Po - Атмосферное давление - измеренное на уровне метеостанции атмосферное давление.
Tmin - Минимальная температура - минимум температуры воздуха на высоте 2 м над землей.
Tmax - Максимальная температура - максимум температуры воздуха на высоте 2 м над землей.
R - Количество осадков - Количество выпавших осадков за период времени, мм. При наведении курсора мыши на число - период времени, за который выпало указанное количество осадков.
R24 - Количество осадков - Количество выпавших осадков за 24 часа, мм.
S - Снежный покров - Высота снежного покрова, см. При наведении курсора мыши на число - состояние снежного покрова и степень покрытия местности в баллах.